Find Local Weather

World > North America > United States > Florida

San Mateo, Florida Regional Weather

Lat: 29.61N, Lon: 81.58W
Wx Zone: FLZ037
Feedback
Expires:201808172100;;218245
ASUS42 KTBW 172018
RWRFL 
FLORIDA REGIONAL WEATHER ROUNDUP
NATIONAL WEATHER SERVICE TAMPA BAY RUSKIN FL
400 PM EDT FRI AUG 17 2018

NOTE: "FAIR" INDICATES FEW OR NO CLOUDS BELOW 12,000 FEET WITH NO
SIGNIFICANT WEATHER AND/OR OBSTRUCTIONS TO VISIBILITY.


FLZ011-016>038-118-127-128-134-139-239-172100-
NORTH FLORIDA
  
CITY           SKY/WX    TMP DP  RH WIND       PRES   REMARKS
MARIANNA       FAIR      75  74  96 S6        30.14F                  
TALLAHASSEE    PTSUNNY   80  76  87 CALM      30.14F                  
PERRY          FAIR      92  75  57 W13       30.14F HX 102           
LIVE OAK       PTSUNNY   86  75  70 S7        30.12S HX  95           
CROSS CITY     PTSUNNY   83  73  72 W5        30.14F                  
LAKE CITY      FAIR      91  72  52 S6        30.12F HX  98           
GAINESVILLE    TSTM      81  71  71 E8        30.17R                  
WILLISTON        N/A    N/A N/A N/A MISG        N/A                   
PALATKA        FAIR      86  75  70 W7        30.14F HX  95           
MAYPORT NAS    FAIR      88  77  69 SE16      30.14F HX 100           
JACKSONVILLE   FAIR      91  74  57 SE14      30.11F HX 100           
JAX NAS        PTSUNNY   87  76  69 E12       30.15S THUNDER HX  97   
JAX CECIL      TSTM      77  75  94 S6        30.14S VSB 1            
FERNANDINA BEA FAIR      87  77  70 SE15      30.12F HX  99           
ST AUGUSTINE   FAIR      88  77  70 SE16G22   30.15F THUNDER HX 100   
PALM COAST     SUNNY     90  73  58 SE14      30.14F HX  98           

STATION/POSITION SKY/WX   TEMP    WIND        PRES    WAVE   SWELL
                          AIR SEA DIR/SP/G            HT/PER HT/PER
                          (F)     (DEG/KT/KT) (MB)    (FT/S) (FT/S)
SHELL POINT      NOT AVBL
KEATON BEACH               85     220/ 10/ 12 1020.8F
CEDAR KEY                  87     220/  5/  7 1020.9F
FERNANDINA                 89 81  130/  9/ 13 1021.5F
30.7N   81.3W                 82                N/A     2/ 8
MAYPORT                    84 80  140/ 11/ 15 1021.2F
31.4N   80.9W              82 84  180/ 12/ 12 1020.9F   2/ 9   2/ 9
ST AUGUSTINE               81 79  150/ 12/ 14 1021.1F

$$

SKY/WX - Weather  TMP - Temperature  DP - Dewpoint  RH - Relative Humidity
WIND - Wind Direction/Speed PRES - Barometric Pressure